[[{"header":{"parameterUnit":"m.s-1","parameterCategory":1,"la1":30.2992,"la2":30.254,"lo1":-89.0895,"lo2":-89.0443,"dy":0.0025,"dx":0.0025,"nx":19,"ny":19,"refTime":"2026-04-11T21:00:00:Z","depth":0,"parameterNumber":2,"parameterNumberName":"U-component_of_WINDS"},"data":[0,0,0,-3.3217,-3.3216,-3.3132,-3.3132,-3.3052,-3.3052,0,0,0,0,0,0,0,0,0,0,0,-3.3258,-3.3258,-3.3217,-3.3216,-3.3132,-3.3132,-3.3052,-3.3052,0,0,0,0,0,0,0,0,0,0,0,-3.3258,-3.3258,-3.3258,-3.3216,-3.3132,-3.3131,-3.3053,-3.3106,0,0,0,0,0,0,0,0,0,0,-3.3183,-3.3234,-3.3258,-3.3258,-3.3215,-3.3132,-3.3131,-3.3108,-3.3103,-3.3102,0,-3.3104,0,-3.3077,-3.3048,-3.3048,0,0,0,-3.3204,-3.3239,-3.3203,-3.3258,-3.3215,-3.3132,-3.3167,-3.3105,-3.3099,-3.3095,-3.3103,-3.3099,-3.3076,-3.3048,-3.3048,-3.3084,-3.3085,0,0,-3.3209,-3.325,-3.3207,-3.32,-3.3213,-3.3169,-3.3164,-3.3101,-3.3112,-3.3103,-3.3097,-3.3075,-3.3048,-3.3047,-3.3084,-3.3084,0,0,0,-3.323,-3.3254,-3.3219,-3.3204,-3.3187,-3.3167,-3.3161,-3.3115,-3.31,-3.3096,-3.3074,-3.3047,-3.3047,-3.3083,-3.3084,-3.3162,0,0,0,-3.3232,-3.3266,-3.3222,-3.3246,-3.3188,-3.3149,-3.3177,-3.3105,-3.3096,-3.3074,-3.3047,-3.3046,-3.3082,-3.3083,-3.3158,-3.3191,0,0,0,-3.3258,-3.3269,-3.3263,-3.3249,-3.3214,-3.3149,-3.313,-3.3102,-3.3083,-3.3048,-3.3046,-3.3081,-3.3083,-3.3154,-3.3185,-3.3215,0,0,0,-3.3297,-3.333,-3.3265,-3.3294,-3.3215,-3.3198,-3.313,-3.3115,-3.3094,-3.3047,-3.3082,-3.3084,-3.3153,-3.3181,-3.3212,-3.3249,-3.3268,0,0,-3.3362,-3.3339,-3.3353,-3.3292,-3.3298,-3.3208,-3.3225,-3.3165,-3.3123,-3.31,-3.31,-3.3159,-3.3185,-3.3215,-3.3359,-3.3375,0,0,0,-3.3388,-3.3399,-3.3391,-3.3374,-3.3332,-3.3299,-3.3233,-3.3212,-3.3191,-3.3119,-3.3176,-3.319,-3.3206,-3.3222,-3.3235,-3.3248,-3.3093,-3.3092,-3.3092,-3.3538,-3.3486,-3.3507,-3.3446,-3.3431,-3.3366,-3.335,-3.3311,-3.3258,-3.3274,-3.3266,-3.3361,-3.3381,-3.339,-3.3404,-3.3281,-3.3281,-3.3281,-3.3282,-3.363,-3.3638,-3.3574,-3.3572,-3.3517,-3.3515,-3.3456,-3.3421,-3.3412,-3.336,-3.3371,-3.332,-3.3409,-3.3419,-3.3287,-3.3286,-3.3285,-3.3285,-3.3284,-3.3723,-3.3718,-3.3694,-3.3669,-3.3656,-3.3594,-3.3591,-3.354,-3.3492,-3.3504,-3.3493,-3.3492,-3.3486,-3.3502,-3.3503,-3.3503,-3.3503,-3.3503,-3.3504,-3.3829,-3.3799,-3.3802,-3.3765,-3.3751,-3.3727,-3.3667,-3.3652,-3.3623,-3.3586,-3.3586,-3.3536,-3.3427,-3.3402,-3.3508,-3.3508,-3.3507,-3.3507,-3.3506,-3.3942,-3.391,-3.3915,-3.3902,-3.3857,-3.3851,-3.3788,-3.3764,-3.3744,-3.3746,-3.3695,-3.3622,-3.3595,-3.3584,-3.3563,-3.3704,-3.3704,-3.3704,-3.3704,-3.4021,-3.4004,-3.4001,-3.3984,-3.3962,-3.3908,-3.392,-3.3877,-3.3826,-3.3812,-3.3784,-3.3752,-3.3743,-3.3721,-3.3707,-3.3687,-3.3857,-3.3857,-3.3857,-3.4089,-3.4068,-3.4087,-3.4038,-3.4002,-3.3972,-3.3983,-3.3969,-3.3904,-3.3862,-3.3801,-3.3794,-3.3741,-3.3726,-3.3681,-3.366,-3.3622,0,0]},{"header":{"parameterUnit":"m.s-1","parameterCategory":1,"la1":30.2992,"la2":30.254,"lo1":-89.0895,"lo2":-89.0443,"dy":0.0025,"dx":0.0025,"nx":19,"ny":19,"refTime":"2026-04-11T21:00:00:Z","depth":0,"parameterNumber":3,"parameterNumberName":"V-component_of_WINDS"},"data":[0,0,0,2.7597,2.7596,2.7543,2.7542,2.7463,2.7462,0,0,0,0,0,0,0,0,0,0,0,2.7609,2.7608,2.7597,2.7596,2.7543,2.7542,2.7463,2.7462,0,0,0,0,0,0,0,0,0,0,0,2.7609,2.7608,2.7608,2.7595,2.7543,2.7542,2.7464,2.7507,0,0,0,0,0,0,0,0,0,0,2.756,2.7568,2.7609,2.7608,2.7595,2.7543,2.7542,2.7509,2.7504,2.7484,0,2.7467,0,2.7464,2.7457,2.7456,0,0,0,2.7597,2.7572,2.7562,2.7608,2.7595,2.7543,2.7567,2.7506,2.7501,2.7477,2.7466,2.7463,2.7463,2.7456,2.7456,2.734,2.734,0,0,2.76,2.7596,2.7566,2.7558,2.7569,2.7569,2.7565,2.7503,2.7489,2.7466,2.7462,2.7461,2.7456,2.7455,2.7341,2.734,0,0,0,2.7608,2.7598,2.759,2.7561,2.7553,2.7567,2.7563,2.7492,2.749,2.7461,2.746,2.7455,2.7454,2.7342,2.7341,2.7307,0,0,0,2.7609,2.7603,2.7591,2.7588,2.7554,2.7522,2.7554,2.7494,2.7488,2.7461,2.7455,2.7453,2.7342,2.7341,2.7309,2.7289,0,0,0,2.7613,2.7603,2.7595,2.7588,2.7565,2.7524,2.7518,2.7493,2.7487,2.7456,2.7453,2.7343,2.7341,2.7311,2.7293,2.7257,0,0,0,2.7616,2.7563,2.7594,2.7535,2.7566,2.7505,2.7518,2.7472,2.7442,2.7455,2.7342,2.7341,2.7312,2.7295,2.726,2.7225,2.7211,0,0,2.7546,2.7554,2.752,2.7546,2.7479,2.7513,2.744,2.7414,2.7413,2.7364,2.7361,2.7308,2.7293,2.7258,2.7139,2.7128,0,0,0,2.7496,2.7471,2.7454,2.7428,2.741,2.7392,2.738,2.7371,2.733,2.7389,2.7287,2.7278,2.7258,2.7241,2.7231,2.7213,2.7334,2.7334,2.7334,2.7388,2.7394,2.7338,2.7338,2.7312,2.7301,2.7279,2.7265,2.7275,2.7252,2.7235,2.7163,2.7144,2.7137,2.7117,2.722,2.722,2.722,2.722,2.7285,2.7249,2.727,2.7222,2.7228,2.7187,2.7175,2.7185,2.7145,2.7175,2.7157,2.7186,2.7124,2.7108,2.7217,2.7218,2.7218,2.7218,2.7219,2.7212,2.7196,2.719,2.7154,2.7125,2.7127,2.7089,2.7096,2.7101,2.7084,2.7067,2.7067,2.7066,2.7076,2.7076,2.7076,2.7076,2.7075,2.7075,2.7137,2.7132,2.7101,2.7081,2.7066,2.7047,2.7039,2.7023,2.7007,2.7014,2.7014,2.7025,2.7119,2.7141,2.7071,2.7072,2.7073,2.7073,2.7073,2.7024,2.7052,2.7004,2.699,2.6968,2.6938,2.695,2.6918,2.6906,2.6887,2.6905,2.6975,2.6981,2.6989,2.7006,2.6906,2.6906,2.6906,2.6906,2.696,2.6967,2.6921,2.6897,2.6875,2.6882,2.6826,2.682,2.6817,2.6809,2.6826,2.6852,2.6859,2.6861,2.6871,2.6888,2.6759,2.6759,2.6759,2.689,2.6895,2.6846,2.6849,2.6833,2.6819,2.6766,2.6736,2.6739,2.6753,2.6803,2.681,2.6851,2.6865,2.6875,2.6891,2.6921,0,0]}]]